"TOA5","AWS1","CR1000","7964","CR1000.Std.14","CPU:AWS1_114.CR1","64363","TBL110"
"TIMESTAMP","RECORD","Wind_spd_WVc(1)","Wind_spd_WVc(2)","Air_Temp_Avg","Humidity_Avg","SW_upper_Wm2_Avg","Rain_Tot","Press_Avg","Issui_Tot","Depth_cm","SR50A_Raw","Quality","Ground_Temp_Avg(1)","Ground_Temp_Avg(2)","SW_lower_Wm2_Avg","Albedo_Avg","SWC_per(1)","SWC_per(2)","Period(1)","Period(2)"
"TS","RN","","","","","","","","","","","","","","","","","","",""
"","","WVc","WVc","Avg","Avg","Avg","Tot","Avg","Tot","Smp","Smp","Smp","Avg","Avg","Avg","Avg","Smp","Smp","Smp","Smp"
"2017-07-11 00:00:00",296269,0.114,359,17.72,100,0.1768577,0,868.058,0,3.889,3.043,257,20.89,19.7,0.6100988,1.181,45.24,53.22,32.09,34.08
"2017-07-11 00:10:00",296270,0.155,56.51,17.76,100,0.09825332,0,867.9865,0,3.371,3.049,255,20.85,19.7,0.3637794,1.037,45.24,53.22,32.09,34.08
"2017-07-11 00:20:00",296271,0.14,100.9,17.51,100,0,0,867.8243,0,3.722,3.047,272,20.78,19.68,0.03410268,0,45.24,53.22,32.09,34.08
"2017-07-11 00:30:00",296272,0.238,102.1,17.52,100,0,0,867.8202,0,3.569,3.048,267,20.73,19.68,0.1743021,0,45.29,53.22,32.1,34.08
"2017-07-11 00:40:00",296273,0.102,136.6,17.66,100,0,0,867.8181,0,3.674,3.046,268,20.8,19.69,0.2728314,0,45.24,53.22,32.09,34.08
"2017-07-11 00:50:00",296274,0.166,127.4,17.75,100,0,0,867.8181,0,3.674,3.046,268,20.76,19.7,0.3183089,0,45.24,53.22,32.09,34.08
"2017-07-11 01:00:00",296275,0.106,47.18,17.75,100,0,0,867.6096,0,3.678,3.046,276,20.68,19.7,0.2690428,0,45.24,53.22,32.09,34.08
"2017-07-11 01:10:00",296276,0.201,336.5,17.72,100,0,0,867.7191,0,3.988,3.043,314,20.65,19.69,0.2273581,0,45.24,53.22,32.09,34.08
"2017-07-11 01:20:00",296277,0.204,80.6,17.73,100,0,0,867.6012,0,3.475,3.048,310,20.66,19.68,0.1743055,0,45.24,53.16,32.09,34.07
"2017-07-11 01:30:00",296278,0.089,38.57,17.71,100,0,0,867.5864,0,3.209,3.051,305,20.65,19.68,0.03789253,0,45.24,53.22,32.09,34.08
"2017-07-11 01:40:00",296279,0.013,66.57,17.63,100,0,0,867.4686,0,3.213,3.051,332,20.61,19.66,0,0,45.24,53.22,32.09,34.08
"2017-07-11 01:50:00",296280,0.14,75.72,17.56,100,0,0,867.4559,0,3.309,3.051,317,20.56,19.65,0,0,45.24,53.22,32.09,34.08
"2017-07-11 02:00:00",296281,0.237,7.685,17.48,100,0,0,867.458,0,3.159,3.052,312,20.61,19.62,0.113674,0,45.24,53.22,32.09,34.08
"2017-07-11 02:10:00",296282,0.18,358.8,17.53,100,0,0,867.5654,0,3.304,3.051,315,20.63,19.64,0.1932487,0,45.24,53.22,32.09,34.08
"2017-07-11 02:20:00",296283,0.089,143.6,17.23,100,0,0,867.492,0,1.938,3.067,321,20.57,19.65,0,0,45.24,53.16,32.09,34.07
"2017-07-11 02:30:00",296284,0.133,223.7,17.01,100,0,0,867.4171,0,3.181,3.054,372,20.52,19.66,0.08336453,0,45.24,53.22,32.09,34.08
"2017-07-11 02:40:00",296285,0.008,51.27,17.14,100,0,0,867.3288,0,1.123,3.073,250,20.56,19.68,0.2879944,0,45.24,53.22,32.09,34.08
"2017-07-11 02:50:00",296286,0,0,17.24,100,0,0,867.54,0,1.677,3.069,264,20.52,19.68,0.3789465,0,45.24,53.22,32.09,34.08
"2017-07-11 03:00:00",296287,0.054,311.1,17.15,100,0,0,867.5769,0,1.169,3.073,253,20.47,19.66,0.5532631,0,45.19,53.16,32.08,34.07
"2017-07-11 03:10:00",296288,0.016,12.27,17.2,100,0,0,867.5947,0,1.524,3.07,263,20.46,19.63,0.6176904,0,45.24,53.22,32.09,34.08
"2017-07-11 03:20:00",296289,0.055,159.2,16.78,100,0,0,867.6871,0,1.295,3.075,261,20.46,19.63,0.0151581,0,45.24,53.22,32.09,34.08
"2017-07-11 03:30:00",296290,0.179,201.1,16.57,100,0,0,867.8279,0,1.801,3.071,288,20.41,19.62,0,0,45.19,53.16,32.08,34.07
"2017-07-11 03:40:00",296291,0.415,176.5,16.21,100,0,0,867.8254,0,1.784,3.073,257,20.38,19.63,0,0,45.19,53.16,32.08,34.07
"2017-07-11 03:50:00",296292,0.388,178.2,16.08,100,0,0,867.8401,0,1.785,3.073,256,20.37,19.64,0.1136852,0,45.24,53.16,32.09,34.07
"2017-07-11 04:00:00",296293,0.219,179.9,16.23,100,0,0,867.836,0,2.134,3.068,258,20.32,19.66,0.4016861,0,45.19,53.16,32.08,34.07
"2017-07-11 04:10:00",296294,0.136,180.3,16.38,100,0,0,867.8342,0,2.941,3.059,294,20.34,19.67,0.3183194,0,45.19,53.16,32.08,34.07
"2017-07-11 04:20:00",296295,0.125,142.6,16.77,100,0,0,867.8447,0,2.069,3.067,266,20.31,19.67,0.7010634,0,45.24,53.16,32.09,34.07
"2017-07-11 04:30:00",296296,0.175,156.7,16.47,100,0,0,867.8378,0,2.258,3.067,248,20.32,19.67,0.1212652,0,45.24,53.16,32.09,34.07
"2017-07-11 04:40:00",296297,0.246,182.1,16.4,100,0.05895425,0,867.8246,0,2.702,3.062,250,20.28,19.66,0.4850612,0.222,45.24,53.16,32.09,34.07
"2017-07-11 04:50:00",296298,0.184,157.5,16.64,100,2.024096,0,867.8271,0,2.393,3.065,248,20.27,19.66,1.004228,0.609,45.24,53.11,32.09,34.06
"2017-07-11 05:00:00",296299,0.127,167.4,16.47,100,6.335617,0,867.8453,0,2.164,3.067,257,20.22,19.65,1.440026,0.227,45.24,53.16,32.09,34.07
"2017-07-11 05:10:00",296300,0.14,174.6,16.43,100,11.99129,0,867.8377,0,2.258,3.067,249,20.2,19.63,2.080458,0.175,45.19,53.16,32.08,34.07
"2017-07-11 05:20:00",296301,0.246,180.2,16.32,100,16.97882,0,867.8775,0,1.649,3.072,254,20.15,19.63,2.512466,0.148,45.24,53.16,32.09,34.07
"2017-07-11 05:30:00",296302,0.099,196.7,16.52,100,21.22746,0,867.9958,0,0.92,3.08,252,20.13,19.62,3.088476,0.146,45.24,53.16,32.09,34.07
"2017-07-11 05:40:00",296303,0.07,196.6,16.41,100,29.26882,0,868.0905,0,-0.109,3.09,239,20.14,19.62,4.187443,0.143,45.24,53.16,32.09,34.07
"2017-07-11 05:50:00",296304,0.008,39.7,16.45,100,41.34265,0,868.1024,0,-0.15,3.089,229,20.14,19.61,6.915912,0.166,45.24,53.16,32.09,34.07
"2017-07-11 06:00:00",296305,0.069,79.1,16.79,100,71.68051,0,868.0914,0,-0.403,3.091,226,20.08,19.6,12.3198,0.179,45.24,53.16,32.09,34.07
"2017-07-11 06:10:00",296306,0.105,124.4,17.11,100,121.7287,0,868.2921,0,-0.285,3.085,245,20.05,19.61,20.45973,0.179,45.19,53.16,32.08,34.07
"2017-07-11 06:20:00",296307,0.025,130.4,17.6,100,83.24733,0,868.3329,0,1.502,3.067,229,19.99,19.62,20.40289,0.27,45.24,53.16,32.09,34.07
"2017-07-11 06:30:00",296308,0,0,18.19,93.6,70.356,0,868.3273,0,2.015,3.057,234,20,19.59,24.60549,0.362,45.24,53.16,32.09,34.07
"2017-07-11 06:40:00",296309,0.271,8.82,18.6,88,148.1429,0,868.5575,0,1.906,3.059,229,19.95,19.59,29.55441,0.222,45.19,53.16,32.08,34.07
"2017-07-11 06:50:00",296310,0.227,333.6,18.44,91.4,136.2185,0,868.5866,0,1.544,3.063,228,19.95,19.58,20.40213,0.15,45.24,53.16,32.09,34.07
"2017-07-11 07:00:00",296311,0.158,344.3,18.44,90.7,111.0276,0,868.6434,0,1.741,3.061,242,19.94,19.55,16.18736,0.146,45.24,53.16,32.09,34.07
"2017-07-11 07:10:00",296312,0.116,0.404,18.45,90.4,91.11154,0,868.7718,0,1.828,3.06,236,19.87,19.51,12.39341,0.136,45.24,53.11,32.09,34.06
"2017-07-11 07:20:00",296313,0.028,34.63,18.56,92.2,140.5168,0,868.8223,0,2.003,3.057,237,19.83,19.48,20.00828,0.142,45.24,53.16,32.09,34.07
"2017-07-11 07:30:00",296314,0.235,17.88,18.59,93.5,96.3158,0,868.8308,0,2.146,3.057,265,19.82,19.47,12.98741,0.134,45.24,53.16,32.09,34.07
"2017-07-11 07:40:00",296315,0.02,93.4,18.54,96.4,87.6907,0,868.8308,0,2.205,3.056,307,19.82,19.47,11.54391,0.131,45.24,53.16,32.09,34.07
"2017-07-11 07:50:00",296316,0.212,134,18.44,98.9,124.7604,0,868.8308,0,2.405,3.055,266,19.8,19.43,17.57489,0.141,45.24,53.11,32.09,34.06
"2017-07-11 08:00:00",296317,0.368,159.5,18.44,99.2,163.3234,0,868.8308,0,2.163,3.056,290,19.78,19.38,24.73105,0.151,45.19,53.16,32.08,34.07
"2017-07-11 08:10:00",296318,0.437,152.3,18.72,97.3,243.5975,0,868.8308,0,3.11,3.045,278,19.77,19.37,38.2365,0.157,45.24,53.11,32.09,34.06
"2017-07-11 08:20:00",296319,0.336,153.3,19.12,91.7,277.1685,0,868.8055,0,3.649,3.038,461,19.8,19.37,43.72663,0.158,45.24,53.11,32.09,34.06
"2017-07-11 08:30:00",296320,0.439,148.4,19.6,85.9,339.5071,0,868.7255,0,3.164,3.04,256,19.8,19.37,54.33663,0.16,45.24,53.11,32.09,34.06
"2017-07-11 08:40:00",296321,0.338,155.6,20.01,82.2,436.5085,0,868.5992,0,2.919,3.039,227,19.8,19.36,70.69424,0.161,45.24,53.11,32.09,34.06
"2017-07-11 08:50:00",296322,0.316,136.2,20.57,78.34,447.225,0,868.5781,0,3.035,3.037,257,19.73,19.36,70.52663,0.156,45.24,53.11,32.09,34.06
"2017-07-11 09:00:00",296323,0.571,136.6,21.29,74.95,833.5214,0,868.5781,0,2.708,3.035,243,19.76,19.3,134.241,0.161,45.24,53.11,32.09,34.06
"2017-07-11 09:10:00",296324,0.856,131.2,21.43,71.65,752.8616,0,868.576,0,2.72,3.036,251,19.78,19.28,119.7695,0.157,45.24,53.11,32.09,34.06
"2017-07-11 09:20:00",296325,0.379,153,21.37,70.6,553.455,0,868.3634,0,2.638,3.035,281,19.79,19.35,85.50465,0.15,45.19,53.11,32.08,34.06
"2017-07-11 09:30:00",296326,0.732,126.8,21.43,71.06,398.5523,0,868.3255,0,3.345,3.032,238,19.83,19.36,59.29751,0.149,45.19,53.11,32.08,34.06
"2017-07-11 09:40:00",296327,0.507,146.4,21.34,72.11,651.6158,0,868.3255,0,3.031,3.031,369,19.83,19.34,104.1315,0.159,45.19,53.11,32.08,34.06
"2017-07-11 09:50:00",296328,0.556,143.9,21.46,70.99,425.0806,0,868.3129,0,2.987,3.035,246,19.8,19.28,63.81311,0.146,45.19,53.05,32.08,34.04
"2017-07-11 10:00:00",296329,0.481,115.7,21.51,72.2,579.4882,0,868.3255,0,2.522,3.035,336,19.8,19.19,92.39168,0.158,45.19,53.05,32.08,34.04
"2017-07-11 10:10:00",296330,0.461,53.81,21.85,71.65,488.1991,0,868.176,0,2.326,3.038,296,19.86,19.18,75.4544,0.152,45.19,53.05,32.08,34.04
"2017-07-11 10:20:00",296331,0.513,3.228,22.08,70.67,745.3526,0,868.0729,0,2.82,3.029,336,19.93,19.18,118.1707,0.153,45.14,53.05,32.06,34.04
"2017-07-11 10:30:00",296332,0.24,289.6,22.78,69.32,872.6819,0,868.0455,0,-0.491,3.057,201,19.88,19.18,139.6501,0.156,45.14,53.05,32.06,34.04
"2017-07-11 10:40:00",296333,0.33,330.3,23.54,66.42,957.8693,0,867.8812,0,1.848,3.035,263,19.94,19.18,150.9846,0.154,45.14,53.05,32.06,34.04
"2017-07-11 10:50:00",296334,0.389,323.8,22.78,69.94,716.4512,0,867.8202,0,4.716,3.011,310,19.97,19.18,105.6165,0.137,45.14,53,32.06,34.03
"2017-07-11 11:00:00",296335,0.154,265,23.23,69.55,856.53,0,867.736,0,2.866,3.023,272,19.98,19.19,133.2025,0.146,45.08,53,32.05,34.03
"2017-07-11 11:10:00",296336,0.394,293.3,23.37,68.34,926.0684,0,867.5674,0,-2.137,3.071,216,20.05,19.18,140.0896,0.148,45.08,53,32.05,34.03
"2017-07-11 11:20:00",296337,0.281,312.2,24.04,66.14,1132.597,0,867.4474,0,-0.03,3.049,225,20.04,19.18,176.3962,0.155,45.03,53,32.04,34.03
"2017-07-11 11:30:00",296338,0.26,310.3,24.4,65.93,1069.789,0,867.3148,0,-1.25,3.058,220,20.11,19.18,164.9026,0.154,45.03,53,32.04,34.03
"2017-07-11 11:40:00",296339,0.45,31.75,24.32,65.35,960.0145,0,867.3127,0,0.42,3.042,279,20.16,19.15,146.772,0.145,44.98,52.94,32.02,34.02
"2017-07-11 11:50:00",296340,0.399,348.7,24.7,64.56,1099.398,0,867.1927,0,1.559,3.028,255,20.24,19.13,171.4866,0.156,45.03,52.94,32.04,34.02
"2017-07-11 12:00:00",296341,0.466,350.7,25.14,63.47,1102.439,0,867.0812,0,1.013,3.033,263,20.32,19.11,174.4983,0.158,44.93,52.94,32.01,34.02
"2017-07-11 12:10:00",296342,0.387,284.1,25.05,62.89,950.9661,0,867.0623,0,3.904,3.006,292,20.39,19.11,148.151,0.15,44.93,52.88,32.01,34
"2017-07-11 12:20:00",296343,0.631,0.484,24.48,66.19,743.1013,0,867.0623,0,4.075,3.007,372,20.5,19.13,110.8632,0.136,44.93,52.88,32.01,34
"2017-07-11 12:30:00",296344,0.437,261,24.49,66.94,845.7686,0,867.0643,0,1.001,3.036,226,20.59,19.13,135.8694,0.154,44.87,52.88,32,34
"2017-07-11 12:40:00",296345,0.4,269.7,24.59,67.35,531.1622,0,867.0623,0,3.737,3.012,280,20.68,19.13,77.14775,0.141,44.93,52.88,32.01,34
"2017-07-11 12:50:00",296346,0.248,242.8,24.24,68.95,610.0868,0,867.0706,0,-0.089,3.048,251,20.79,19.12,93.58877,0.144,44.93,52.88,32.01,34
"2017-07-11 13:00:00",296347,0.253,213.6,24.13,69.55,394.368,0,867.1423,0,4.025,3.011,273,20.88,19.13,53.88789,0.136,44.87,52.94,32,34.02
"2017-07-11 13:10:00",296348,0.213,280.6,23.9,70.7,461.8909,0,867.1885,0,1.407,3.037,315,20.98,19.12,67.92336,0.144,44.87,52.88,32,34
"2017-07-11 13:20:00",296349,0.211,302.6,23.58,71.79,321.7139,0,867.0643,0,-0.631,3.057,223,21.05,19.13,45.41357,0.14,44.82,52.88,31.98,34
"2017-07-11 13:30:00",296350,0.478,20.27,23.46,72.04,495.6012,0,867.2117,0,-1.35,3.063,211,21.18,19.13,78.41303,0.153,44.82,52.88,31.98,34
"2017-07-11 13:40:00",296351,0.122,288.9,23.77,70.75,400.9726,0,867.2833,0,-0.701,3.057,206,21.24,19.14,60.6234,0.145,44.77,52.88,31.97,34
"2017-07-11 13:50:00",296352,0.308,0.653,23.49,72.77,332.7228,0,867.3127,0,-0.85,3.06,227,21.33,19.15,47.75849,0.143,44.77,52.88,31.97,34
"2017-07-11 14:00:00",296353,0.375,334.3,23.61,71.7,654.9868,0,867.3022,0,0.294,3.045,226,21.4,19.18,107.5977,0.159,44.77,52.88,31.97,34
"2017-07-11 14:10:00",296354,0.508,276.4,24.12,69.43,446.1319,0,867.3148,0,4.847,3.004,338,21.4,19.18,66.26411,0.14,44.77,52.88,31.97,34
"2017-07-11 14:20:00",296355,0.219,114.6,23.52,72.65,329.6386,0,867.3191,0,5.506,2.999,356,21.48,19.18,46.79249,0.14,44.77,52.88,31.97,34
"2017-07-11 14:30:00",296356,0.191,18.1,23.03,73.67,200.1366,0,867.3148,0,4.833,3.009,273,21.5,19.18,25.20703,0.122,44.72,52.83,31.96,33.99
"2017-07-11 14:40:00",296357,0.302,18.77,22.76,74.99,425.4538,0,867.4033,0,-0.327,3.057,203,21.57,19.18,63.89266,0.149,44.72,52.83,31.96,33.99
"2017-07-11 14:50:00",296358,0.363,359.8,23.23,71.55,394.9888,0,867.3843,0,2.125,3.033,259,21.62,19.18,59.25963,0.15,44.67,52.83,31.94,33.99
"2017-07-11 15:00:00",296359,0.344,35.72,23.16,70.31,376.8449,0,867.4769,0,2.982,3.025,270,21.7,19.18,54.95996,0.146,44.67,52.83,31.94,33.99
"2017-07-11 15:10:00",296360,0.341,30.87,22.91,72.08,384.086,0,867.3212,0,0.425,3.05,216,21.71,19.18,48.41386,0.132,44.67,52.83,31.94,33.99
"2017-07-11 15:20:00",296361,0.464,41.47,23.01,71.04,317.8583,0,867.3148,0,3.443,3.021,273,21.73,19.26,43.34933,0.137,44.67,52.83,31.94,33.99
"2017-07-11 15:30:00",296362,0.183,355.4,23.06,70.95,322.6484,0,867.3148,0,-0.562,3.057,195,21.76,19.29,44.66774,0.14,44.61,52.77,31.93,33.98
"2017-07-11 15:40:00",296363,0.325,335.9,23.49,69.87,374.7014,0,867.3191,0,-0.284,3.053,240,21.75,19.27,59.80162,0.159,44.61,52.77,31.93,33.98
"2017-07-11 15:50:00",296364,0.474,160.1,23.58,69.53,330.8413,0,867.357,0,0.342,3.049,222,21.87,19.23,49.83074,0.15,44.56,52.77,31.91,33.98
"2017-07-11 16:00:00",296365,0.486,106.1,23.04,71.42,258.4658,0,867.3148,0,0.877,3.047,232,21.88,19.23,36.62483,0.141,44.56,52.77,31.91,33.98
"2017-07-11 16:10:00",296366,0.418,117.6,22.86,72.45,223.4824,0,867.3148,0,2.208,3.034,266,21.88,19.24,31.71146,0.142,44.51,52.77,31.9,33.98
"2017-07-11 16:20:00",296367,0.397,105.3,22.55,72.48,211.7938,0,867.317,0,-0.751,3.064,214,21.92,19.28,30.68863,0.145,44.56,52.77,31.91,33.98
"2017-07-11 16:30:00",296368,0.242,72.86,22.6,72.31,201.0442,0,867.317,0,0.518,3.05,223,21.95,19.36,30.181,0.15,44.51,52.72,31.9,33.96
"2017-07-11 16:40:00",296369,0.374,96.8,22.78,70.7,138.3696,0,867.3148,0,4.15,3.016,288,21.95,19.33,18.62683,0.133,44.51,52.72,31.9,33.96
"2017-07-11 16:50:00",296370,0.229,10.6,22.38,72.18,144.2945,0,867.3148,0,4.392,3.015,252,21.97,19.35,20.4111,0.138,44.51,52.72,31.9,33.96
"2017-07-11 17:00:00",296371,0.36,328.4,22.46,72.8,187.3022,0,867.3191,0,4.387,3.015,236,21.96,19.33,28.90837,0.154,44.46,52.72,31.89,33.96
"2017-07-11 17:10:00",296372,0.251,11.09,22.57,72.76,149.0937,0,867.5507,0,3.98,3.018,225,22.07,19.39,21.90832,0.147,44.46,52.72,31.89,33.96
"2017-07-11 17:20:00",296373,0.515,125,22.27,71.06,128.6685,0,867.5275,0,4.21,3.018,225,22.11,19.42,17.999,0.14,44.46,52.66,31.89,33.95
"2017-07-11 17:30:00",296374,0.118,84.7,22.26,72.29,129.849,0,867.6686,0,4.278,3.016,231,22.12,19.45,18.3781,0.141,44.46,52.66,31.89,33.95
"2017-07-11 17:40:00",296375,0.119,45.15,22.24,73.7,139.4556,0,867.7864,0,4.21,3.018,229,22.13,19.49,20.32913,0.146,44.46,52.66,31.89,33.95
"2017-07-11 17:50:00",296376,0.117,135.3,22.03,75.21,135.8736,0,867.6559,0,4.201,3.019,224,22.14,19.46,18.88916,0.139,44.46,52.66,31.89,33.95
"2017-07-11 18:00:00",296377,0.292,120.9,21.91,75.13,121.7399,0,867.5674,0,4.398,3.018,229,22.15,19.46,16.78649,0.138,44.46,52.66,31.89,33.95
"2017-07-11 18:10:00",296378,0.129,49.46,21.87,75.21,111.7836,0,867.5674,0,4.167,3.02,225,22.14,19.47,15.83182,0.142,44.41,52.66,31.87,33.95
"2017-07-11 18:20:00",296379,0.163,97.4,21.8,76.2,100.3999,0,867.5674,0,3.96,3.022,226,22.09,19.53,14.34662,0.143,44.46,52.66,31.89,33.95
"2017-07-11 18:30:00",296380,0.155,355,21.63,77.34,93.30557,0,867.5674,0,4.118,3.022,273,22.02,19.55,13.89983,0.149,44.41,52.66,31.87,33.95
"2017-07-11 18:40:00",296381,0.249,80.3,21.5,77.14,97.59422,0,867.6264,0,4.784,3.016,366,21.99,19.59,15.52538,0.159,44.41,52.66,31.87,33.95
"2017-07-11 18:50:00",296382,0.059,35.47,21.46,77.19,79.47366,0,867.8412,0,4.497,3.019,396,21.99,19.64,13.15393,0.165,44.41,52.6,31.87,33.94
"2017-07-11 19:00:00",296383,0.021,300.9,21.19,79.65,50.92707,0,868.0686,0,2.838,3.037,322,22.02,19.63,8.236306,0.161,44.41,52.66,31.87,33.95
"2017-07-11 19:10:00",296384,0.038,12.24,20.93,80.5,8.176761,0,868.075,0,3.476,3.032,300,22.07,19.61,0.9206148,0.043,44.41,52.6,31.87,33.94
"2017-07-11 19:20:00",296385,0.05,87,20.54,83,0,0,868.1213,0,3.548,3.034,245,22.07,19.63,0,0,44.41,52.66,31.87,33.95
"2017-07-11 19:30:00",296386,0,0,20.28,85.2,0,0,868.2476,0,3.92,3.031,241,22.05,19.68,0,0,44.35,52.6,31.86,33.94
"2017-07-11 19:40:00",296387,0.179,132.4,20.05,89,0,0,868.3255,0,3.928,3.032,226,21.98,19.7,0,0,44.41,52.6,31.87,33.94
"2017-07-11 19:50:00",296388,0,0,19.87,91.6,0,0,868.3255,0,3.974,3.032,235,21.98,19.75,0,0,44.41,52.6,31.87,33.94
"2017-07-11 20:00:00",296389,0.025,114.2,19.8,93.5,0,0,868.3255,0,4.147,3.031,287,22.01,19.75,0,0,44.35,52.6,31.86,33.94
"2017-07-11 20:10:00",296390,0.347,142.3,19.58,98,0,0,868.3255,0,3.33,3.04,366,21.95,19.75,0,0,44.35,52.6,31.86,33.94
"2017-07-11 20:20:00",296391,0.27,162.5,19.51,100,0,0,868.3298,0,-1.894,3.09,202,21.94,19.75,0.06441182,0,44.35,52.6,31.86,33.94
"2017-07-11 20:30:00",296392,0.426,142.9,19.6,99.5,0,0,868.3802,0,-1.639,3.088,203,21.93,19.76,0.2349131,0,44.35,52.6,31.86,33.94
"2017-07-11 20:40:00",296393,0.233,154.3,19.57,98.5,0,0,868.5718,0,-1.481,3.086,202,21.93,19.81,0.2462801,0,44.35,52.6,31.86,33.94
"2017-07-11 20:50:00",296394,0.218,147.6,19.61,96.4,0,0,868.5781,0,-0.609,3.078,214,21.93,19.84,0.2046053,0,44.35,52.6,31.86,33.94
"2017-07-11 21:00:00",296395,0.157,151,19.51,97.1,0,0,868.5781,0,2.023,3.053,262,21.86,19.8,0,0,44.35,52.55,31.86,33.92
"2017-07-11 21:10:00",296396,0.382,149.7,19.5,96.5,0,0,868.5781,0,2.023,3.053,267,21.86,19.8,0.1553539,0,44.3,52.55,31.85,33.92
"2017-07-11 21:20:00",296397,0.393,145.9,19.28,99.9,0,0,868.576,0,4.393,3.031,293,21.84,19.84,0,0,44.35,52.6,31.86,33.94
"2017-07-11 21:30:00",296398,0.467,139.7,19.15,100,0,0,868.5781,0,4.255,3.033,300,21.78,19.86,0,0,44.3,52.6,31.85,33.94
"2017-07-11 21:40:00",296399,0.578,142.2,19.04,100,0,0,868.5781,0,4.045,3.035,266,21.75,19.86,0.05304883,0,44.3,52.6,31.85,33.94
"2017-07-11 21:50:00",296400,0.452,158.8,19.13,99.4,0,0,868.5781,0,4.231,3.033,285,21.75,19.87,0.2235629,0,44.35,52.6,31.86,33.94
"2017-07-11 22:00:00",296401,0.459,151,19.13,98.4,0,0,868.6119,0,4.44,3.031,275,21.69,19.88,0.2121926,0,44.3,52.6,31.85,33.94
"2017-07-11 22:10:00",296402,0.447,134.6,19.18,99.8,0,0,868.6897,0,4.391,3.031,265,21.66,19.93,0.3410237,0,44.3,52.6,31.85,33.94
"2017-07-11 22:20:00",296403,0.223,60.06,19.29,100,0,0,868.7129,0,4.059,3.034,245,21.65,19.94,0.3031314,0,44.35,52.6,31.86,33.94
"2017-07-11 22:30:00",296404,0.207,94.9,19.22,100,0,0,868.6202,0,4.023,3.035,231,21.6,19.95,0.2273503,0,44.3,52.6,31.85,33.94
"2017-07-11 22:40:00",296405,0.554,132.7,19.16,100,0,0,868.5634,0,4.125,3.034,241,21.62,19.94,0.2652444,0,44.3,52.6,31.85,33.94
"2017-07-11 22:50:00",296406,0.709,135,19.21,100,0,0,868.4161,0,3.997,3.035,224,21.67,19.92,0.2273549,0,44.3,52.6,31.85,33.94
"2017-07-11 23:00:00",296407,0.291,153.4,19.23,100,0,0,868.4371,0,4.124,3.034,231,21.52,19.91,0.04168161,0,44.3,52.6,31.85,33.94
"2017-07-11 23:10:00",296408,0.446,133.5,19.05,100,0,0,868.5781,0,4.265,3.034,233,21.53,19.91,0,0,44.3,52.55,31.85,33.92
"2017-07-11 23:20:00",296409,0.114,138.3,18.94,100,0,0,868.7129,0,4.158,3.035,232,21.51,19.91,0,0,44.3,52.55,31.85,33.92
"2017-07-11 23:30:00",296410,0.213,131.6,18.85,100,0,0,868.8287,0,4.304,3.034,236,21.44,19.92,0.06442001,0,44.3,52.55,31.85,33.92
"2017-07-11 23:40:00",296411,0.071,138.4,19.01,100,0,0,868.8308,0,3.958,3.036,215,21.45,19.95,0.4319901,0,44.3,52.55,31.85,33.92
"2017-07-11 23:50:00",296412,0.016,146.9,19.02,100,0,0,868.8265,0,4.125,3.036,230,21.44,19.96,0.1174701,0,44.3,52.55,31.85,33.92
